Location: Cluj-Napoca
(46.7712°N, 23.6236°E)
Time: 18:48:41
(UTC+03:00)

ISS - Pass Details

Date: 29 May 2020
Orbit: 417 x 420 km, 51.6° (Epoch: 26 May)

Event Time Altitude Azimuth Distance (km) Brightness Sun altitude
Rises 23:23:56 0° 292° (WNW) 2,367 0.9 -16.4°
Reaches altitude 10° 23:26:11 10° 281° (W) 1,500 -0.4 -16.5°
Maximum altitude 23:29:09 29° 219° (SW) 790 -2.6 -16.8°
Enters shadow 23:29:24 29° 210° (SSW) 797 -2.7 -16.8°
